Location: *
(46.1333°S, 161.2167°W)
Time: 04:33:30
(UTC+00:00)

ATLAS CENTAUR R/B - Pass Details

Date: 15 July 2020
Orbit: 475 x 672 km, 64.7° (Epoch: 13 July)

Event Time Altitude Azimuth Distance (km) Brightness Sun altitude
Exits shadow 16:35:12 11° 196° (SSW) 2,028 3.9 -17.9°
Maximum altitude 16:38:58 26° 142° (SE) 1,344 3.5 -17.2°
Drops below altitude 10° 16:43:01 10° 85° (E) 2,124 5.6 -16.6°
Sets 16:45:42 0° 72° (ENE) 3,029 6.9 -16.1°
